Location: Le Castellard
(44.1862°N, 6.1301°E)
Time: 01:14:38
(UTC+00:00)

SKYMED 3 - Pass Details

Date: 18 January 2020
Orbit: 621 x 623 km, 97.9° (Epoch: 28 February)

Event Time Altitude Azimuth Distance (km) Brightness Sun altitude
Rises 04:58:59 0° 174° (S) 2,890 8.2 -22.4°
Reaches altitude 10° 05:01:11 10° 177° (S) 1,988 7.3 -22.0°
Maximum altitude 05:05:28 63° 259° (WSW) 701 4.5 -21.3°
Enters shadow 05:06:00 57° 296° (WNW) 737 4.5 -21.2°
